[[{"header":{"parameterUnit":"m.s-1","parameterCategory":1,"la1":30.2992,"la2":30.254,"lo1":-89.0895,"lo2":-89.0443,"dy":0.0025,"dx":0.0025,"nx":19,"ny":19,"refTime":"2026-03-22T09:00:00:Z","depth":0,"parameterNumber":2,"parameterNumberName":"U-component_of_WINDS"},"data":[0,0,0,5.4795,5.4802,5.5116,5.5117,5.5516,5.552,0,0,0,0,0,0,0,0,0,0,0,5.47,5.4702,5.4795,5.4802,5.5116,5.5117,5.5515,5.552,0,0,0,0,0,0,0,0,0,0,0,5.4699,5.4702,5.4705,5.4803,5.5115,5.5117,5.5515,5.5279,0,0,0,0,0,0,0,0,0,0,5.4975,5.4884,5.4701,5.4705,5.4805,5.5115,5.5117,5.5268,5.5294,5.5373,0,5.5441,0,5.5487,5.5546,5.5547,0,0,0,5.4804,5.4863,5.4949,5.4705,5.4808,5.5115,5.4975,5.5282,5.5312,5.5407,5.5447,5.5462,5.5493,5.5549,5.5551,5.5995,5.5997,0,0,5.4787,5.4755,5.4929,5.4968,5.4918,5.4965,5.4985,5.53,5.5342,5.5448,5.5471,5.55,5.5551,5.5554,5.5994,5.5996,0,0,0,5.4736,5.4743,5.4822,5.4951,5.5008,5.4974,5.4997,5.5328,5.5356,5.5476,5.5504,5.5553,5.5558,5.5991,5.5994,5.6059,0,0,0,5.4726,5.4713,5.4814,5.4798,5.5002,5.5172,5.5017,5.5334,5.5371,5.5502,5.5554,5.5562,5.5989,5.5993,5.6053,5.6095,0,0,0,5.468,5.4708,5.4752,5.4796,5.4929,5.5167,5.5214,5.5343,5.5389,5.5548,5.5563,5.5988,5.5992,5.6047,5.6086,5.6201,0,0,0,5.4623,5.4808,5.4753,5.4971,5.4927,5.5205,5.5212,5.5422,5.5566,5.5556,5.599,5.5994,5.6045,5.608,5.6195,5.6291,5.6329,0,0,5.4838,5.4832,5.4963,5.4923,5.5203,5.516,5.5451,5.5614,5.5659,5.5881,5.5892,5.6055,5.6085,5.62,5.6553,5.6583,0,0,0,5.502,5.5113,5.5195,5.533,5.5458,5.5571,5.5693,5.5753,5.5943,5.5766,5.613,5.6149,5.6218,5.6265,5.629,5.635,5.6015,5.6015,5.6014,5.5279,5.5325,5.5544,5.5628,5.5759,5.5882,5.5993,5.6095,5.6106,5.6191,5.6256,5.6465,5.6519,5.6538,5.66,5.6312,5.6313,5.6313,5.6313,5.5597,5.5735,5.5743,5.5957,5.6006,5.6187,5.6313,5.6314,5.649,5.642,5.6482,5.6399,5.6569,5.6626,5.6319,5.6318,5.6317,5.6316,5.6316,5.577,5.5844,5.5914,5.6113,5.6261,5.6341,5.6509,5.6548,5.6586,5.6648,5.672,5.6719,5.6722,5.668,5.6681,5.6682,5.6682,5.6683,5.6683,5.5921,5.5997,5.6133,5.6284,5.6375,5.65,5.6625,5.6716,5.6827,5.6842,5.6843,5.6843,5.6578,5.6508,5.6695,5.6693,5.6691,5.669,5.6689,5.6223,5.616,5.637,5.6461,5.6641,5.6785,5.6833,5.7014,5.7096,5.7177,5.7165,5.6962,5.6959,5.694,5.6883,5.7155,5.7155,5.7155,5.7155,5.6367,5.6369,5.6591,5.6734,5.6879,5.6943,5.7178,5.7277,5.7371,5.7424,5.739,5.7319,5.7297,5.7307,5.728,5.7227,5.7581,5.7581,5.7582,5.6554,5.6572,5.6764,5.6853,5.6996,5.7118,5.7341,5.7504,5.7598,5.76,5.7465,5.7448,5.7333,5.7293,5.729,5.7246,5.715,0,0]},{"header":{"parameterUnit":"m.s-1","parameterCategory":1,"la1":30.2992,"la2":30.254,"lo1":-89.0895,"lo2":-89.0443,"dy":0.0025,"dx":0.0025,"nx":19,"ny":19,"refTime":"2026-03-22T09:00:00:Z","depth":0,"parameterNumber":3,"parameterNumberName":"V-component_of_WINDS"},"data":[0,0,0,-0.4961,-0.4961,-0.4956,-0.4956,-0.4945,-0.4945,0,0,0,0,0,0,0,0,0,0,0,-0.496,-0.496,-0.4961,-0.4961,-0.4956,-0.4956,-0.4945,-0.4945,0,0,0,0,0,0,0,0,0,0,0,-0.4961,-0.496,-0.496,-0.4961,-0.4956,-0.4956,-0.4945,-0.495,0,0,0,0,0,0,0,0,0,0,-0.4956,-0.4953,-0.496,-0.496,-0.4961,-0.4956,-0.4956,-0.4951,-0.495,-0.4945,0,-0.4941,0,-0.4943,-0.4944,-0.4944,0,0,0,-0.4963,-0.4953,-0.4954,-0.496,-0.4961,-0.4956,-0.4959,-0.495,-0.4949,-0.4944,-0.4941,-0.494,-0.4942,-0.4943,-0.4943,-0.4913,-0.4913,0,0,-0.4963,-0.4958,-0.4955,-0.4954,-0.4955,-0.4959,-0.4959,-0.495,-0.4945,-0.4941,-0.494,-0.4942,-0.4943,-0.4943,-0.4913,-0.4913,0,0,0,-0.4963,-0.4958,-0.4959,-0.4954,-0.4954,-0.4959,-0.4958,-0.4946,-0.4947,-0.494,-0.4942,-0.4943,-0.4943,-0.4913,-0.4913,-0.4897,0,0,0,-0.4963,-0.4958,-0.4959,-0.4956,-0.4954,-0.495,-0.4954,-0.4947,-0.4946,-0.4942,-0.4943,-0.4943,-0.4914,-0.4913,-0.4898,-0.4889,0,0,0,-0.4962,-0.4958,-0.4956,-0.4956,-0.4954,-0.495,-0.495,-0.4947,-0.4948,-0.4944,-0.4943,-0.4914,-0.4913,-0.4899,-0.4891,-0.4879,0,0,0,-0.4958,-0.4941,-0.4956,-0.4938,-0.4954,-0.4941,-0.4951,-0.4941,-0.4936,-0.4943,-0.4914,-0.4913,-0.4899,-0.4892,-0.488,-0.4868,-0.4863,0,0,-0.4934,-0.4938,-0.4928,-0.4941,-0.4924,-0.4942,-0.4923,-0.4922,-0.4926,-0.4917,-0.4916,-0.4898,-0.4891,-0.488,-0.4837,-0.4833,0,0,0,-0.4919,-0.4912,-0.4908,-0.4904,-0.4904,-0.4903,-0.4907,-0.4907,-0.49,-0.4921,-0.4891,-0.4887,-0.4881,-0.4875,-0.4872,-0.4866,-0.4911,-0.4911,-0.4911,-0.4876,-0.4883,-0.4867,-0.4874,-0.487,-0.4875,-0.4871,-0.4872,-0.488,-0.4873,-0.487,-0.4844,-0.4837,-0.4834,-0.4828,-0.4865,-0.4865,-0.4865,-0.4865,-0.484,-0.483,-0.4843,-0.4832,-0.484,-0.4831,-0.4836,-0.4842,-0.4834,-0.4846,-0.4841,-0.4853,-0.4829,-0.4824,-0.4864,-0.4864,-0.4864,-0.4864,-0.4865,-0.4811,-0.4808,-0.4809,-0.4804,-0.4799,-0.4808,-0.48,-0.4808,-0.4815,-0.481,-0.4807,-0.4807,-0.4807,-0.4808,-0.4808,-0.4808,-0.4808,-0.4808,-0.4808,-0.4779,-0.4782,-0.4775,-0.4775,-0.4774,-0.4773,-0.4779,-0.4778,-0.4778,-0.4785,-0.4785,-0.4793,-0.4826,-0.4834,-0.4807,-0.4807,-0.4807,-0.4807,-0.4807,-0.4737,-0.4748,-0.4737,-0.4736,-0.4738,-0.4732,-0.4744,-0.4741,-0.4741,-0.4737,-0.4748,-0.4772,-0.4776,-0.4779,-0.4785,-0.4747,-0.4747,-0.4747,-0.4747,-0.4711,-0.4715,-0.4706,-0.4704,-0.4702,-0.4712,-0.4699,-0.4704,-0.4711,-0.4712,-0.4719,-0.4729,-0.4731,-0.4734,-0.4738,-0.4744,-0.4696,-0.4696,-0.4696,-0.4685,-0.469,-0.4677,-0.4685,-0.4688,-0.4689,-0.4677,-0.4674,-0.4684,-0.4694,-0.4713,-0.4715,-0.473,-0.4735,-0.4742,-0.4748,-0.4758,0,0]}]]